MPEC 2026-N79によると、このアポロ型小惑星に彗星活動が確認された。
この天体は、1998年9月17日、Kitt Peakの0.9-m Spacewatch 望遠鏡によって最初に発見され、
小惑星符号 1998 SH2が与えられていた (MPEC 1998-S10 参照)。
2016年3月10.2日UT、MtLemmonサーベイの1.5-m反射望遠鏡で得たたCCD画像に21等星として
再発見され、小惑星符号 2016 EC156が与えられていた (MPEC 2016-E164 参照)。
R. Weryk (西オンタリオ大学,物理および天文学科)は、R. Wainscoatと彼自身が、MaunaKeaの
3.6-m Canada-France-Hawaii 望遠鏡で得た(875163)の未発表の位置観測を報告した。
2025年9月17.4日UT、シーイング0".7 の条件下で得た3枚の120-秒露出gri-バンド画像、および
2025年9月18.5日にシーイング1".0の条件下で得た11枚の180-秒露出gri-バンド画像では、近傍
の恒星と同程度の大きさの頭部が見えるが、p.a. 265°に約20"の直線状の尾がある。
小惑星の名称は重複できないため、この彗星には名称はつけられない。
彗星機能の報告は次のとおり、
OC Date Reporter Coma Tail PA Comet Date
(T/P) Reported
W74 2025-09-13 P. Pravec 10" 271 T 2026-06-23.35
T14 2025-09-17 R. Weryk 20" 265 T 2026-06-04.65
T14 2025-09-18 R. Weryk 20" 265 T 2026-06-04.65
809 2025-09-30 O. R. Hainaut 1".2 60" 243 T 2026-06-22.60
発見位置は次のとおり、
1998 UT R.A. (2000) Decl. Mag.
Sept.17.44420 1 06 22.71 + 3 05 15.8 19.1
17.46535 1 06 17.16 + 3 05 06.6 19.2
17.49046 1 06 10.67 + 3 04 55.5 19.2
18.31880 1 02 52.36 + 2 59 03.7 19.3
18.32284 1 02 51.37 + 2 59 01.9 19.2
18.32688 1 02 50.36 + 2 59 00.2 19.3
中野主一氏(中央局)の軌道要素は次のとおり、
from 397 observations spanning 1998-2025 (mean residual 0".4).
Farnocchiaら(2026年、"Nature Astron.")の主張とは対照的に、検出可能な非重力的な力は存在
しない。この彗星は、2025年8月30日に地球から0.0208 AUの距離を通過し、2052年9月8日UTには
地球から0.0695 AUの距離を通過する予定である。また、2037年7月4日には木星から0.98 AUの距離
を通過する予定である。
Epoch = 1998 July 6.0 TT
T = 1998 July 18.27083 TT Peri. = 259.92935
e = 0.7210182 Node = 14.29747 2000.0
q = 0.7596089 AU Incl. = 2.48760
a = 2.7227906 AU n = 0.21937276 P = 4.49 years
Epoch = 2003 Jan. 1.0 TT
T = 2003 Jan. 8.34953 TT Peri. = 261.12311
e = 0.7251913 Node = 13.17115 2000.0
q = 0.7443006 AU Incl. = 2.49041
a = 2.7084319 AU n = 0.22111957 P = 4.46 years
Epoch = 2007 June 29.0 TT
T = 2007 June 23.49655 TT Peri. = 261.20139
e = 0.7257667 Node = 13.08243 2000.0
q = 0.7424485 AU Incl. = 2.49020
a = 2.7073603 AU n = 0.22125088 P = 4.46 years
Epoch = 2011 Dec. 25.0 TT
T = 2011 Dec. 7.56551 TT Peri. = 261.24037
e = 0.7248807 Node = 13.04625 2000.0
q = 0.7453820 AU Incl. = 2.48884
a = 2.7093045 AU n = 0.22101275 P = 4.46 years
Epoch = 2016 June 21.0 TT
T = 2016 June 19.70320 TT Peri. = 268.30338
e = 0.7136506 Node = 6.48824 2000.0
q = 0.7859407 AU Incl. = 2.40381
a = 2.7446911 AU n = 0.21675238 P = 4.55 years
Epoch = 2020 Dec. 17.0 TT
T = 2021 Jan. 5.50116 TT Peri. = 268.46101
e = 0.7142148 Node = 6.36322 2000.0
q = 0.7837726 AU Incl. = 2.40391
a = 2.7425233 AU n = 0.21700942 P = 4.54 years
Epoch = 2025 July 24.0 TT
T = 2025 July 21.38931 TT Peri. = 268.42955
e = 0.7139100 Node = 6.36751 2000.0
q = 0.7848738 AU Incl. = 2.40426
a = 2.7434508 AU n = 0.21689937 P = 4.54 years
Epoch = 2030 Jan. 19.0 TT
T = 2030 Feb. 3.61053 TT Peri. = 268.68646
e = 0.7138098 Node = 6.06275 2000.0
q = 0.7851458 AU Incl. = 2.42542
a = 2.7434401 AU n = 0.21690065 P = 4.54 years
Epoch = 2034 Aug. 26.0 TT
T = 2034 Aug. 23.47806 TT Peri. = 268.93969
e = 0.7136316 Node = 5.86400 2000.0
q = 0.7860227 AU Incl. = 2.42408
a = 2.7447955 AU n = 0.21674001 P = 4.55 years
Epoch = 2039 Feb. 21.0 TT
T = 2039 Mar. 5.53502 TT Peri. = 276.78329
e = 0.7256065 Node = 358.43893 2000.0
q = 0.7435204 AU Incl. = 2.47718
a = 2.7096870 AU n = 0.22096597 P = 4.46 years
Epoch = 2043 Aug. 19.0 TT
T = 2043 Aug. 19.84940 TT Peri. = 276.87452
e = 0.7264711 Node = 358.34619 2000.0
q = 0.7406654 AU Incl. = 2.47811
a = 2.7078136 AU n = 0.22119531 P = 4.46 years
(MPEC 2026-N79、CBET 5716)